AAY3059 KSFB-KTYS

Flight info

Callsign AAY3059
Flight time 1h 15m
Altitude 34000
Route WORMS JEEMY ACCHE PAINN SHRKS Q77 TEUFL ODF
Aircraft A320/M-SDE3FGHIRWY/LB1

Departure

Time 2026-04-28 01:40
Airport Orlando Sanford International Airport (KSFB)

Arrival

Time 2026-04-28 02:56
Airport McGhee Tyson Airport (KTYS)
Time Latitude Longitude Altitude Speed Heading
2026-04-28 01:22 28.77612 -81.24618 62 ft 0 kts 100°
2026-04-28 01:32 28.77615 -81.24634 55 ft 4 kts 101°
2026-04-28 01:32 28.77621 -81.24664 57 ft 4 kts 107°
2026-04-28 01:32 28.77629 -81.24693 58 ft 4 kts 105°
2026-04-28 01:33 28.77635 -81.24723 56 ft 4 kts 94°
2026-04-28 01:33 28.77633 -81.24751 56 ft 4 kts 52°
2026-04-28 01:33 28.77627 -81.24758 60 ft 1 kts 33°
2026-04-28 01:36 28.77634 -81.24753 57 ft 6 kts 32°
2026-04-28 01:36 28.77704 -81.24734 60 ft 8 kts
2026-04-28 01:36 28.77726 -81.24734 58 ft 3 kts
2026-04-28 01:37 28.77750 -81.24737 53 ft 4 kts 345°
2026-04-28 01:37 28.77792 -81.24770 59 ft 13 kts 317°
2026-04-28 01:37 28.77880 -81.24873 54 ft 23 kts 314°
2026-04-28 01:37 28.77973 -81.24981 50 ft 23 kts 312°
2026-04-28 01:38 28.78066 -81.25130 54 ft 24 kts 277°
2026-04-28 01:38 28.78068 -81.25340 56 ft 30 kts 269°
2026-04-28 01:38 28.78063 -81.25534 52 ft 17 kts 269°
2026-04-28 01:38 28.78141 -81.25579 54 ft 18 kts 10°
2026-04-28 01:39 28.78170 -81.25474 56 ft 11 kts 90°
2026-04-28 01:39 28.78174 -81.25434 56 ft 2 kts 88°
2026-04-28 01:39 28.78175 -81.25221 56 ft 59 kts 90°
2026-04-28 01:39 28.78176 -81.24793 53 ft 102 kts 90°
2026-04-28 01:40 28.78180 -81.23363 55 ft 167 kts 90°
2026-04-28 01:40 28.78172 -81.22012 596 ft 173 kts 86°
2026-04-28 01:40 28.78184 -81.20582 1150 ft 188 kts 85°
2026-04-28 01:40 28.78586 -81.19115 1539 ft 208 kts 50°
2026-04-28 01:41 28.79894 -81.18271 1941 ft 235 kts 10°
2026-04-28 01:41 28.81561 -81.18627 2539 ft 258 kts 336°
2026-04-28 01:41 28.83088 -81.19780 3339 ft 267 kts 324°
2026-04-28 01:41 28.84511 -81.21186 4186 ft 273 kts 319°
2026-04-28 01:42 28.85898 -81.22671 5136 ft 273 kts 318°
2026-04-28 01:42 28.87304 -81.24179 6144 ft 271 kts 317°
2026-04-28 01:42 28.88690 -81.25631 7064 ft 271 kts 318°
2026-04-28 01:42 28.90102 -81.27070 7883 ft 274 kts 319°
2026-04-28 01:43 28.91055 -81.28024 8402 ft 276 kts 319°
2026-04-28 01:43 28.92515 -81.29465 9228 ft 278 kts 320°
2026-04-28 01:43 28.93997 -81.30915 10017 ft 282 kts 320°
2026-04-28 01:43 28.96037 -81.32905 10510 ft 305 kts 320°
2026-04-28 01:44 28.97153 -81.33992 10644 ft 321 kts 321°
2026-04-28 01:44 28.98908 -81.35702 10957 ft 337 kts 321°
2026-04-28 01:44 29.00716 -81.37440 11543 ft 342 kts 324°
2026-04-28 01:44 29.02745 -81.38874 12197 ft 344 kts 334°
2026-04-28 01:45 29.04889 -81.40099 12881 ft 346 kts 334°
2026-04-28 01:45 29.07052 -81.41332 13556 ft 348 kts 334°
2026-04-28 01:45 29.09280 -81.42456 14199 ft 350 kts 342°
2026-04-28 01:45 29.11662 -81.43067 14774 ft 353 kts 353°
2026-04-28 01:46 29.14120 -81.43303 15336 ft 356 kts 355°
2026-04-28 01:46 29.16568 -81.43533 15902 ft 359 kts 355°
2026-04-28 01:46 29.19068 -81.43772 16466 ft 362 kts 355°
2026-04-28 01:46 29.21595 -81.44015 17022 ft 365 kts 355°
2026-04-28 01:47 29.24141 -81.44260 17573 ft 369 kts 355°
2026-04-28 01:47 29.26708 -81.44505 18130 ft 372 kts 355°
2026-04-28 01:47 29.29298 -81.44753 18654 ft 374 kts 355°
2026-04-28 01:47 29.31898 -81.44998 19142 ft 376 kts 355°
2026-04-28 01:48 29.34517 -81.45243 19643 ft 378 kts 355°
2026-04-28 01:48 29.37146 -81.45491 20144 ft 380 kts 355°
2026-04-28 01:48 29.39785 -81.45745 20643 ft 382 kts 354°
2026-04-28 01:48 29.42439 -81.46002 21143 ft 383 kts 354°
2026-04-28 01:49 29.44942 -81.46243 22106 ft 384 kts 354°
2026-04-28 01:49 29.47639 -81.46501 21887 ft 391 kts 354°
2026-04-28 01:49 29.50357 -81.46760 22368 ft 393 kts 354°
2026-04-28 01:49 29.53087 -81.47018 22832 ft 395 kts 354°
2026-04-28 01:50 29.55834 -81.47280 23286 ft 397 kts 354°
2026-04-28 01:50 29.58600 -81.47545 23702 ft 400 kts 354°
2026-04-28 01:50 29.61385 -81.47805 24068 ft 402 kts 354°
2026-04-28 01:50 29.64174 -81.48059 24436 ft 404 kts 354°
2026-04-28 01:51 29.66980 -81.48313 24810 ft 405 kts 354°
2026-04-28 01:51 29.69800 -81.48566 25171 ft 407 kts 354°
2026-04-28 01:51 29.72632 -81.48819 25527 ft 409 kts 354°
2026-04-28 01:51 29.75432 -81.49069 25877 ft 410 kts 354°
2026-04-28 01:52 29.78318 -81.49331 26229 ft 412 kts 354°
2026-04-28 01:52 29.81186 -81.49592 26574 ft 413 kts 354°
2026-04-28 01:52 29.84020 -81.49850 26922 ft 415 kts 354°
2026-04-28 01:52 29.86897 -81.50108 27263 ft 416 kts 354°
2026-04-28 01:53 29.89769 -81.50600 27600 ft 417 kts 345°
2026-04-28 01:53 29.92550 -81.51551 27909 ft 418 kts 342°
2026-04-28 01:53 29.95329 -81.52553 28255 ft 419 kts 342°
2026-04-28 01:53 29.98117 -81.53557 28571 ft 421 kts 342°
2026-04-28 01:54 30.00915 -81.54562 28879 ft 422 kts 342°
2026-04-28 01:54 30.03738 -81.55573 29178 ft 423 kts 342°
2026-04-28 01:54 30.06560 -81.56581 29476 ft 425 kts 342°
2026-04-28 01:54 30.08302 -81.57202 29653 ft 426 kts 342°
2026-04-28 01:55 30.11138 -81.58212 29938 ft 427 kts 342°
2026-04-28 01:55 30.13968 -81.59220 30259 ft 429 kts 341°
2026-04-28 01:55 30.15497 -81.59766 30412 ft 430 kts 341°
2026-04-28 01:55 30.18358 -81.60792 30732 ft 430 kts 341°
2026-04-28 01:56 30.21222 -81.61821 31061 ft 429 kts 341°
2026-04-28 01:56 30.24071 -81.62850 31383 ft 429 kts 341°
2026-04-28 01:56 30.26893 -81.63870 31686 ft 428 kts 341°
2026-04-28 01:56 30.29738 -81.64894 32002 ft 428 kts 341°
2026-04-28 01:57 30.32575 -81.65912 32319 ft 428 kts 341°
2026-04-28 01:57 30.35428 -81.66937 32600 ft 429 kts 341°
2026-04-28 01:57 30.38283 -81.67962 32877 ft 429 kts 341°
2026-04-28 01:57 30.41137 -81.68987 33207 ft 428 kts 341°
2026-04-28 01:58 30.43979 -81.70008 33506 ft 428 kts 341°
2026-04-28 01:58 30.46825 -81.71032 33825 ft 427 kts 341°
2026-04-28 01:58 30.49659 -81.72057 34116 ft 427 kts 341°
2026-04-28 01:58 30.52497 -81.73085 34180 ft 426 kts 341°
2026-04-28 01:59 30.58108 -81.75114 34220 ft 425 kts 341°
2026-04-28 01:59 30.63805 -81.76945 34224 ft 426 kts 348°
2026-04-28 02:00 30.69665 -81.78109 34223 ft 426 kts 348°
2026-04-28 02:00 30.75512 -81.79273 34198 ft 426 kts 348°
2026-04-28 02:01 30.81342 -81.80443 34200 ft 426 kts 348°
2026-04-28 02:01 30.87177 -81.81616 34212 ft 426 kts 348°
2026-04-28 02:02 30.92987 -81.82780 34204 ft 426 kts 348°
2026-04-28 02:02 30.98824 -81.83957 34218 ft 426 kts 348°
2026-04-28 02:03 31.04668 -81.85135 34215 ft 425 kts 348°
2026-04-28 02:03 31.10504 -81.86308 34213 ft 425 kts 348°
2026-04-28 02:04 31.16342 -81.87486 34210 ft 425 kts 348°
2026-04-28 02:04 31.22173 -81.88665 34212 ft 425 kts 348°
2026-04-28 02:05 31.27960 -81.89837 34223 ft 425 kts 348°
2026-04-28 02:05 31.33793 -81.91014 34214 ft 426 kts 348°
2026-04-28 02:06 31.39635 -81.92200 34217 ft 426 kts 348°
2026-04-28 02:06 31.45491 -81.93391 34224 ft 427 kts 348°
2026-04-28 02:07 31.51348 -81.94586 34228 ft 427 kts 348°
2026-04-28 02:07 31.57205 -81.95778 34233 ft 428 kts 349°
2026-04-28 02:08 31.63086 -81.96979 34220 ft 429 kts 348°
2026-04-28 02:08 31.68971 -81.98180 34182 ft 430 kts 349°
2026-04-28 02:09 31.74867 -81.99375 34185 ft 430 kts 349°
2026-04-28 02:09 31.80724 -82.00565 34183 ft 430 kts 349°
2026-04-28 02:10 31.86616 -82.01859 34181 ft 430 kts 344°
2026-04-28 02:10 31.92263 -82.04233 34173 ft 431 kts 339°
2026-04-28 02:11 31.97903 -82.06706 34177 ft 432 kts 339°
2026-04-28 02:11 32.03545 -82.09167 34184 ft 432 kts 339°
2026-04-28 02:12 32.09190 -82.11643 34188 ft 433 kts 339°
2026-04-28 02:12 32.14811 -82.14120 34199 ft 433 kts 339°
2026-04-28 02:13 32.20473 -82.16611 34203 ft 433 kts 339°
2026-04-28 02:13 32.26080 -82.19091 34188 ft 433 kts 339°
2026-04-28 02:14 32.31702 -82.21576 34162 ft 430 kts 339°
2026-04-28 02:14 32.37328 -82.24061 34192 ft 431 kts 339°
2026-04-28 02:15 32.45757 -82.27794 34208 ft 431 kts 339°
2026-04-28 02:16 32.51360 -82.30280 34216 ft 430 kts 339°
2026-04-28 02:16 32.56980 -82.32776 34208 ft 430 kts 339°
2026-04-28 02:17 32.62579 -82.35270 34197 ft 429 kts 338°
2026-04-28 02:17 32.68169 -82.37756 34203 ft 429 kts 338°
2026-04-28 02:18 32.73727 -82.40226 34200 ft 429 kts 338°
2026-04-28 02:18 32.79353 -82.42737 34181 ft 429 kts 338°
2026-04-28 02:19 32.84897 -82.45220 34184 ft 429 kts 338°
2026-04-28 02:19 32.90634 -82.47235 34165 ft 430 kts 342°
2026-04-28 02:20 32.96436 -82.49046 34174 ft 431 kts 344°
2026-04-28 02:20 33.02042 -82.51545 34180 ft 429 kts 335°
2026-04-28 02:21 33.07530 -82.54383 34190 ft 430 kts 335°
2026-04-28 02:21 33.12986 -82.57209 34186 ft 430 kts 335°
2026-04-28 02:22 33.18479 -82.60057 34188 ft 430 kts 335°
2026-04-28 02:22 33.23976 -82.62907 34210 ft 430 kts 335°
2026-04-28 02:23 33.29472 -82.65755 34202 ft 430 kts 335°
2026-04-28 02:23 33.34966 -82.68603 34217 ft 430 kts 335°
2026-04-28 02:24 33.40457 -82.71449 34229 ft 430 kts 335°
2026-04-28 02:24 33.45951 -82.74299 34227 ft 430 kts 335°
2026-04-28 02:25 33.51417 -82.77123 34234 ft 430 kts 335°
2026-04-28 02:25 33.56919 -82.79935 34225 ft 430 kts 335°
2026-04-28 02:26 33.62426 -82.82736 34190 ft 430 kts 335°
2026-04-28 02:26 33.67939 -82.85541 34203 ft 430 kts 335°
2026-04-28 02:27 33.72519 -82.87872 34201 ft 430 kts 335°
2026-04-28 02:27 33.78037 -82.90677 34221 ft 430 kts 335°
2026-04-28 02:28 33.83553 -82.93473 34218 ft 429 kts 335°
2026-04-28 02:28 33.89057 -82.96264 34204 ft 429 kts 335°
2026-04-28 02:29 33.94564 -82.99055 34211 ft 429 kts 335°
2026-04-28 02:29 34.00070 -83.01849 34203 ft 429 kts 335°
2026-04-28 02:30 34.05562 -83.04634 34210 ft 429 kts 335°
2026-04-28 02:30 34.11068 -83.07419 34208 ft 429 kts 335°
2026-04-28 02:31 34.16536 -83.10186 34205 ft 429 kts 335°
2026-04-28 02:31 34.22052 -83.12978 34200 ft 429 kts 335°
2026-04-28 02:32 34.27562 -83.15768 34197 ft 429 kts 335°
2026-04-28 02:32 34.30314 -83.17154 34059 ft 425 kts 335°
2026-04-28 02:32 34.33040 -83.18514 33418 ft 424 kts 335°
2026-04-28 02:32 34.35735 -83.19855 33187 ft 425 kts 335°
2026-04-28 02:33 34.38475 -83.21218 33183 ft 427 kts 335°
2026-04-28 02:33 34.44298 -83.22835 33184 ft 436 kts
2026-04-28 02:33 34.47285 -83.22146 32690 ft 441 kts 16°
2026-04-28 02:34 34.50038 -83.20423 31848 ft 452 kts 33°
2026-04-28 02:34 34.52268 -83.17768 31174 ft 458 kts 51°
2026-04-28 02:34 34.53804 -83.14382 30570 ft 462 kts 68°
2026-04-28 02:34 34.54612 -83.10599 30083 ft 463 kts 75°
2026-04-28 02:35 34.55718 -83.06964 29801 ft 458 kts 56°
2026-04-28 02:35 34.57749 -83.04071 29521 ft 446 kts 34°
2026-04-28 02:35 34.60428 -83.02295 29253 ft 435 kts 14°
2026-04-28 02:35 34.63345 -83.01459 28992 ft 429 kts
2026-04-28 02:36 34.66307 -83.01186 28719 ft 424 kts 356°
2026-04-28 02:36 34.69215 -83.01541 28455 ft 417 kts 344°
2026-04-28 02:36 34.71927 -83.02680 28128 ft 411 kts 330°
2026-04-28 02:36 34.74318 -83.04566 27707 ft 406 kts 322°
2026-04-28 02:37 34.76596 -83.06585 27291 ft 403 kts 322°
2026-04-28 02:37 34.78853 -83.08583 26899 ft 401 kts 322°
2026-04-28 02:37 34.81101 -83.10565 26510 ft 398 kts 322°
2026-04-28 02:37 34.83345 -83.12534 26073 ft 394 kts 322°
2026-04-28 02:38 34.85561 -83.14474 25607 ft 391 kts 323°
2026-04-28 02:38 34.87759 -83.16398 25154 ft 388 kts 323°
2026-04-28 02:38 34.89944 -83.18312 24730 ft 386 kts 323°
2026-04-28 02:38 34.92117 -83.20215 24337 ft 384 kts 323°
2026-04-28 02:39 34.94274 -83.22108 23953 ft 381 kts 323°
2026-04-28 02:39 34.96419 -83.23990 23528 ft 379 kts 323°
2026-04-28 02:39 34.98555 -83.25865 23075 ft 376 kts 323°
2026-04-28 02:39 35.00645 -83.27702 22632 ft 373 kts 323°
2026-04-28 02:40 35.02767 -83.29572 22194 ft 370 kts 323°
2026-04-28 02:40 35.04824 -83.31387 21769 ft 368 kts 323°
2026-04-28 02:40 35.06890 -83.33212 21352 ft 365 kts 323°
2026-04-28 02:40 35.08942 -83.35025 20932 ft 363 kts 322°
2026-04-28 02:41 35.10984 -83.36831 20518 ft 360 kts 323°
2026-04-28 02:41 35.13010 -83.38619 20108 ft 358 kts 323°
2026-04-28 02:41 35.15022 -83.40395 19704 ft 356 kts 323°
2026-04-28 02:41 35.17025 -83.42167 19251 ft 354 kts 323°
2026-04-28 02:42 35.19014 -83.43925 18773 ft 352 kts 323°
2026-04-28 02:42 35.21000 -83.45679 18308 ft 351 kts 323°
2026-04-28 02:42 35.22974 -83.47423 17774 ft 349 kts 323°
2026-04-28 02:42 35.24945 -83.49165 17246 ft 348 kts 322°
2026-04-28 02:43 35.26881 -83.50876 16623 ft 348 kts 322°
2026-04-28 02:43 35.28853 -83.52626 15993 ft 351 kts 322°
2026-04-28 02:43 35.30826 -83.54381 15324 ft 348 kts 322°
2026-04-28 02:43 35.32763 -83.56106 14599 ft 341 kts 322°
2026-04-28 02:44 35.34730 -83.57703 13971 ft 338 kts 331°
2026-04-28 02:44 35.36965 -83.58608 13704 ft 340 kts 342°
2026-04-28 02:44 35.39264 -83.59351 13432 ft 342 kts 341°
2026-04-28 02:44 35.41543 -83.60084 13234 ft 340 kts 342°
2026-04-28 02:45 35.43747 -83.60983 12820 ft 328 kts 331°
2026-04-28 02:45 35.45716 -83.62376 11955 ft 326 kts 324°
2026-04-28 02:45 35.47621 -83.63861 11095 ft 326 kts 330°
2026-04-28 02:45 35.49816 -83.64737 10233 ft 339 kts 344°
2026-04-28 02:46 35.52129 -83.65384 9846 ft 336 kts 346°
2026-04-28 02:46 35.54369 -83.66001 9710 ft 324 kts 346°
2026-04-28 02:46 35.56535 -83.66594 9586 ft 315 kts 346°
2026-04-28 02:46 35.58662 -83.67177 9444 ft 313 kts 346°
2026-04-28 02:47 35.60788 -83.67763 9316 ft 311 kts 346°
2026-04-28 02:47 35.62868 -83.68346 9200 ft 310 kts 345°
2026-04-28 02:47 35.64974 -83.68928 9063 ft 310 kts 346°
2026-04-28 02:47 35.67066 -83.69503 8930 ft 309 kts 346°
2026-04-28 02:48 35.69160 -83.70077 8801 ft 308 kts 346°
2026-04-28 02:48 35.71229 -83.70646 8672 ft 299 kts 346°
2026-04-28 02:48 35.73235 -83.71197 8437 ft 294 kts 346°
2026-04-28 02:48 35.75227 -83.71748 8036 ft 293 kts 346°
2026-04-28 02:49 35.77213 -83.72300 7616 ft 293 kts 346°
2026-04-28 02:49 35.79212 -83.72855 7102 ft 291 kts 346°
2026-04-28 02:49 35.81161 -83.73395 6605 ft 284 kts 346°
2026-04-28 02:49 35.83073 -83.73919 6087 ft 277 kts 346°
2026-04-28 02:50 35.84939 -83.74421 5565 ft 272 kts 346°
2026-04-28 02:50 35.86797 -83.74910 5080 ft 274 kts 347°
2026-04-28 02:50 35.88622 -83.75393 4961 ft 262 kts 346°
2026-04-28 02:50 35.90326 -83.75947 4971 ft 243 kts 332°
2026-04-28 02:51 35.91579 -83.77239 4971 ft 233 kts 299°
2026-04-28 02:51 35.92053 -83.79084 4986 ft 225 kts 266°
2026-04-28 02:51 35.91854 -83.80962 4875 ft 218 kts 255°
2026-04-28 02:51 35.91515 -83.82808 4350 ft 223 kts 254°
2026-04-28 02:52 35.91140 -83.84679 3814 ft 227 kts 253°
2026-04-28 02:52 35.90741 -83.86580 3317 ft 228 kts 250°
2026-04-28 02:52 35.89989 -83.88197 3150 ft 211 kts 227°
2026-04-28 02:52 35.88981 -83.89447 2928 ft 200 kts 224°
2026-04-28 02:53 35.88035 -83.90596 2706 ft 183 kts 224°
2026-04-28 02:53 35.87185 -83.91634 2469 ft 165 kts 225°
2026-04-28 02:53 35.86405 -83.92586 2278 ft 150 kts 224°
2026-04-28 02:53 35.85964 -83.93130 2169 ft 143 kts 223°
2026-04-28 02:54 35.85274 -83.93971 1989 ft 138 kts 223°
2026-04-28 02:54 35.84588 -83.94808 1799 ft 139 kts 225°
2026-04-28 02:54 35.83894 -83.95654 1627 ft 139 kts 225°
2026-04-28 02:54 35.83209 -83.96491 1442 ft 140 kts 227°
2026-04-28 02:55 35.82517 -83.97337 1258 ft 142 kts 226°
2026-04-28 02:55 35.81826 -83.98187 1061 ft 140 kts 225°
2026-04-28 02:55 35.81164 -83.98993 987 ft 119 kts 224°
2026-04-28 02:55 35.80708 -83.99547 965 ft 66 kts 225°
2026-04-28 02:56 35.80494 -83.99808 965 ft 30 kts 225°
2026-04-28 02:56 35.80357 -83.99977 964 ft 27 kts 225°
2026-04-28 02:56 35.80224 -84.00134 962 ft 26 kts 224°
2026-04-28 02:56 35.80098 -84.00282 959 ft 19 kts 211°
2026-04-28 02:57 35.80018 -84.00275 961 ft 2 kts 138°
2026-04-28 02:57 35.80013 -84.00268 961 ft 0 kts 133°
2026-04-28 02:57 35.80010 -84.00263 960 ft 4 kts 127°